Telluride, CO

6:27 AM MDT on June 22, 2018 (GMT -0600)
Telluride Regional

Weather History for KTEX - October, 2017

Change the Weather History Date:

Monday, October 9, 2017

  Actual Average Record
Temperature  
Mean Temperature 33 °F -  
Max Temperature 39 °F 54 °F 68 °F (1996)
Min Temperature 26 °F 34 °F 26 °F (2011)
Degree Days  
Heating Degree Days 32    
Moisture  
Dew Point 25 °F    
Average Humidity 81    
Maximum Humidity 99    
Minimum Humidity 48    
Precipitation  
Precipitation 0.00 in - - ()
Sea Level Pressure  
Sea Level Pressure 30.14 in    
Wind  
Wind Speed 7 mph (West)    
Max Wind Speed 17 mph    
Max Gust Speed 23 mph    
Visibility 8 miles    
Events Snow    
Averages and records for this station are not official NWS values.
T = Trace of Precipitation, MM = Missing Value Source: NWS Daily Summary

Daily Weather History Graph

Daily Weather History Graph

Search for Another Location

Airport or City:

Astronomy

Oct. 09, 2017 Rise Set
Actual Time 7:14 AM MDT 6:42 PM MDT
Civil Twilight 6:48 AM MDT 7:08 PM MDT
Nautical Twilight 6:18 AM MDT 7:38 PM MDT
Astronomical Twilight 5:47 AM MDT 8:09 PM MDT
Moon 9:58 PM MDT (10/9) 11:25 AM MDT (10/9)
Length of Visible Light 12h 19m
Length of Day
11h 27m
Waning Gibbous, 80% of the Moon is Illuminated
Oct 9
Waning Gibbous
Oct 12
Last Quarter
Oct 19
New
Oct 27
First Quarter
Nov 3
Full

Hourly Weather History & Observations

Time (MDT) Temp. Windchill Dew Point Humidity Pressure Visibility Wind Dir Wind Speed Gust Speed Precip Events Conditions
12:15 AM 39.6 °F 35.4 °F 21.2 °F 48% 29.98 in 10.0 mi East 5.8 mph - N/A   Overcast
12:35 AM 39.4 °F - 21.2 °F 48% 29.97 in 10.0 mi Calm Calm - N/A   Overcast
12:55 AM 39.2 °F - 21.2 °F 49% 29.96 in 10.0 mi Calm Calm - N/A   Overcast
1:15 AM 38.5 °F - 21.6 °F 51% 29.95 in 10.0 mi Calm Calm - N/A   Scattered Clouds
1:35 AM 37.8 °F 34.2 °F 21.4 °F 52% 29.95 in 10.0 mi West 4.6 mph - N/A   Clear
1:55 AM 36.3 °F 30.8 °F 21.6 °F 55% 29.95 in 10.0 mi West 6.9 mph - N/A   Clear
2:15 AM 34.9 °F 27.1 °F 21.0 °F 57% 29.97 in 10.0 mi West 10.4 mph 16.1 mph N/A   Clear
2:35 AM 33.8 °F 23.5 °F 20.3 °F 58% 29.97 in 10.0 mi West 16.1 mph 21.9 mph N/A   Clear
2:55 AM 32.2 °F 23.8 °F 21.0 °F 63% 29.97 in 10.0 mi West 10.4 mph - N/A   Clear
3:15 AM 32.0 °F - 21.0 °F 64% 29.97 in 10.0 mi Calm Calm - N/A   Clear
3:35 AM 31.8 °F 27.3 °F 21.2 °F 65% 29.97 in 10.0 mi West 4.6 mph - N/A   Scattered Clouds
3:55 AM 31.6 °F 26.0 °F 21.6 °F 66% 29.97 in 10.0 mi West 5.8 mph - N/A   Mostly Cloudy
4:15 AM 31.1 °F 24.5 °F 21.7 °F 68% 29.98 in 10.0 mi West 6.9 mph - N/A   Overcast
4:35 AM 31.1 °F - 21.7 °F 68% 29.97 in 10.0 mi Calm Calm - N/A   Overcast
5:55 AM 30.6 °F 21.8 °F 24.4 °F 78% 29.98 in 5.0 mi West 10.4 mph - N/A Snow Light Snow
6:15 AM 28.0 °F 18.6 °F 27.0 °F 96% 29.98 in 1.2 mi West 10.4 mph - N/A Snow Snow
6:35 AM 28.0 °F 18.6 °F 27.5 °F 98% 29.99 in 1.2 mi West 10.4 mph - N/A Snow Light Snow
6:55 AM 28.0 °F 18.6 °F 27.5 °F 98% 29.99 in 4.0 mi West 10.4 mph - N/A Snow Light Snow
7:15 AM 28.4 °F 18.5 °F 27.9 °F 98% 29.99 in 10.0 mi West 11.5 mph 16.1 mph N/A   Overcast
7:55 AM 28.4 °F 22.2 °F 28.2 °F 99% 30.00 in 2.0 mi West 5.8 mph - N/A Snow Light Snow
8:15 AM 28.9 °F 20.4 °F 28.4 °F 98% 30.02 in 0.5 mi West 9.2 mph - N/A Snow Snow
8:35 AM 28.9 °F 21.1 °F 27.9 °F 96% 30.03 in 0.2 mi West 8.1 mph - N/A Snow Snow
8:55 AM 28.9 °F 19.8 °F 27.5 °F 94% 30.04 in 0.2 mi WNW 10.4 mph 16.1 mph N/A Snow Snow
9:15 AM 28.0 °F 16.5 °F 27.1 °F 96% 30.04 in 0.5 mi West 15.0 mph - N/A Snow Light Snow
9:35 AM 27.5 °F 15.4 °F 26.6 °F 96% 30.05 in 5.0 mi West 16.1 mph 19.6 mph N/A Snow Light Snow
9:55 AM 28.0 °F 17.0 °F 27.0 °F 96% 30.06 in 3.0 mi West 13.8 mph - N/A Snow Light Snow
10:35 AM 29.3 °F 18.2 °F 27.9 °F 94% 30.06 in 1.0 mi West 15.0 mph - N/A Snow Light Snow
10:55 AM 29.7 °F 18.2 °F 27.5 °F 92% 30.07 in 3.0 mi West 16.1 mph - N/A Snow Light Snow
11:15 AM 28.9 °F 16.9 °F 27.0 °F 92% 30.08 in 1.8 mi West 17.3 mph 20.7 mph N/A Snow Light Snow
11:35 AM 27.5 °F 15.0 °F 26.4 °F 96% 30.09 in 0.8 mi West 17.3 mph 23.0 mph N/A Snow Light Snow
11:55 AM 27.7 °F 16.1 °F 26.8 °F 96% 30.10 in 0.5 mi West 15.0 mph 23.0 mph N/A Snow Light Snow
12:15 PM 28.8 °F 17.9 °F 27.5 °F 95% 30.11 in 3.0 mi West 13.8 mph - N/A Snow Light Snow
12:55 PM 32.4 °F 21.3 °F 28.0 °F 84% 30.12 in 10.0 mi West 17.3 mph 23.0 mph N/A   Mostly Cloudy
1:15 PM 30.9 °F 21.2 °F 27.1 °F 86% 30.13 in 10.0 mi West 12.7 mph 20.7 mph N/A   Mostly Cloudy
1:35 PM 32.0 °F 20.8 °F 27.9 °F 85% 30.14 in 10.0 mi West 17.3 mph 21.9 mph N/A   Mostly Cloudy
1:55 PM 32.0 °F 21.2 °F 27.7 °F 84% 30.14 in 10.0 mi West 16.1 mph 21.9 mph N/A   Overcast
2:15 PM 33.3 °F 24.6 °F 27.7 °F 80% 30.14 in 10.0 mi WNW 11.5 mph - N/A   Overcast
2:35 PM 32.0 °F 24.8 °F 26.1 °F 79% 30.15 in 10.0 mi West 8.1 mph 16.1 mph N/A   Overcast
2:55 PM 32.0 °F 23.0 °F 26.2 °F 79% 30.16 in 10.0 mi West 11.5 mph - N/A   Overcast
3:15 PM 32.7 °F 23.4 °F 26.1 °F 76% 30.16 in 10.0 mi West 12.7 mph - N/A   Overcast
3:35 PM 32.0 °F 22.5 °F 25.3 °F 76% 30.18 in 10.0 mi West 12.7 mph 17.3 mph N/A   Overcast
3:55 PM 32.5 °F 27.1 °F 25.5 °F 75% 30.19 in 10.0 mi WNW 5.8 mph 16.1 mph N/A   Overcast
4:15 PM 34.0 °F 24.2 °F 26.4 °F 74% 30.20 in 10.0 mi West 15.0 mph - N/A   Overcast
4:35 PM 32.2 °F 23.2 °F 26.8 °F 80% 30.20 in 10.0 mi West 11.5 mph 19.6 mph N/A   Overcast
4:55 PM 31.6 °F 22.1 °F 25.9 °F 79% 30.22 in 10.0 mi West 12.7 mph 19.6 mph N/A   Overcast
5:15 PM 31.1 °F 21.4 °F 25.9 °F 81% 30.23 in 10.0 mi West 12.7 mph - N/A   Overcast
5:35 PM 31.5 °F 24.2 °F 26.4 °F 82% 30.24 in 10.0 mi WSW 8.1 mph - N/A   Overcast
5:55 PM 30.7 °F 24.9 °F 26.1 °F 83% 30.26 in 10.0 mi West 5.8 mph - N/A   Overcast
6:15 PM 30.2 °F 24.3 °F 26.1 °F 85% 30.27 in 10.0 mi West 5.8 mph - N/A   Overcast
6:35 PM 29.8 °F 23.0 °F 26.1 °F 86% 30.28 in 10.0 mi West 6.9 mph - N/A   Overcast
6:55 PM 29.7 °F 20.1 °F 26.2 °F 87% 30.30 in 10.0 mi West 11.5 mph - N/A   Overcast
7:15 PM 29.8 °F - 26.4 °F 87% 30.31 in 10.0 mi Calm Calm - N/A   Overcast
7:35 PM 29.7 °F - 26.2 °F 87% 30.32 in 10.0 mi Calm Calm - N/A   Overcast
7:55 PM 30.2 °F - 25.7 °F 83% 30.33 in 10.0 mi Calm Calm - N/A   Overcast
8:15 PM 30.4 °F - 26.1 °F 84% 30.33 in 10.0 mi Calm Calm - N/A   Overcast
8:35 PM 29.3 °F - 26.1 °F 88% 30.34 in 10.0 mi Calm Calm - N/A   Mostly Cloudy
8:55 PM 29.3 °F - 25.7 °F 86% 30.34 in 10.0 mi Calm Calm - N/A   Clear
9:15 PM 28.9 °F - 25.9 °F 88% 30.34 in 10.0 mi Calm Calm - N/A   Clear
9:35 PM 29.3 °F - 25.7 °F 86% 30.34 in 10.0 mi Calm Calm - N/A   Clear
9:55 PM 28.2 °F - 25.3 °F 89% 30.35 in 10.0 mi Calm Calm - N/A   Clear
10:15 PM 28.0 °F 24.2 °F 25.2 °F 89% 30.37 in 10.0 mi NNE 3.5 mph - N/A   Clear
10:35 PM 27.9 °F - 23.9 °F 85% 30.37 in 10.0 mi Calm Calm - N/A   Clear
10:55 PM 27.5 °F 22.2 °F 24.3 °F 88% 30.37 in 10.0 mi ESE 4.6 mph - N/A   Clear
11:15 PM 27.1 °F - 23.5 °F 86% 30.37 in 10.0 mi Calm Calm - N/A   Clear
11:35 PM 27.5 °F - 23.5 °F 85% 30.37 in 10.0 mi Calm Calm - N/A   Clear
11:55 PM 26.6 °F 21.2 °F 23.5 °F 88% 30.37 in 10.0 mi SE 4.6 mph - N/A   Clear